"read_dt","SO2 (ppb)","flags","PMT voltage (V)","lamp voltage (V)","lamp intensity (Hz)","internal temp (C)","react chamber temp (C)","sample flow (l/min)","pres (mmHg)","SO2 bkg (ppb)","SO2 coefficient"
2014-08-09 00:00:00,1923E-3,5C000000,-0724,0830,12055,029.3,045.5,0.475,733.6,01.19,0.508
2014-08-09 00:01:00,1880E-3,5C000000,-0724,0829,12324,029.3,045.5,0.475,733.6,01.19,0.508
2014-08-09 00:02:00,1667E-3,5C000000,-0724,0829,11831,029.4,045.5,0.475,733.6,01.19,0.508
2014-08-09 00:03:00,1650E-3,5C000000,-0724,0829,12202,029.4,045.5,0.475,733.6,01.19,0.508
2014-08-09 00:04:00,1795E-3,5C000000,-0724,0828,12215,029.4,045.5,0.475,733.6,01.19,0.508
2014-08-09 00:05:00,1784E-3,5C000000,-0724,0829,12311,029.4,045.5,0.475,733.6,01.19,0.508
2014-08-09 00:06:00,1845E-3,5C000000,-0724,0829,12321,029.4,045.5,0.475,733.6,01.19,0.508
2014-08-09 00:07:00,1814E-3,5C000000,-0724,0829,12173,029.4,045.5,0.475,733.6,01.19,0.508
2014-08-09 00:08:00,1769E-3,5C000000,-0724,0829,12239,029.3,045.5,0.475,733.6,01.19,0.508
2014-08-09 00:09:00,1865E-3,5C000000,-0724,0829,12334,029.3,045.5,0.475,733.6,01.19,0.508
2014-08-09 00:10:00,1851E-3,5C000000,-0724,0829,12089,029.3,045.5,0.475,733.6,01.19,0.508
2014-08-09 00:11:00,1889E-3,5C000000,-0724,0829,12072,029.3,045.5,0.475,733.6,01.19,0.508
2014-08-09 00:12:00,1834E-3,5C000000,-0724,0829,12221,029.3,045.5,0.475,733.6,01.19,0.508
2014-08-09 00:13:00,1847E-3,5C000000,-0724,0829,12204,029.3,045.5,0.475,733.6,01.19,0.508
2014-08-09 00:14:00,1841E-3,5C000000,-0724,0828,12278,029.3,045.5,0.475,733.6,01.19,0.508
2014-08-09 00:15:00,1971E-3,5C000000,-0724,0828,12357,029.3,045.5,0.475,733.6,01.19,0.508
2014-08-09 00:16:00,1914E-3,5C000000,-0724,0829,12142,029.3,045.5,0.475,733.6,01.19,0.508
2014-08-09 00:17:00,1813E-3,5C000000,-0724,0829,12174,029.3,045.5,0.475,733.5,01.19,0.508
2014-08-09 00:18:00,1742E-3,5C000000,-0724,0829,12368,029.3,045.5,0.475,733.5,01.19,0.508
2014-08-09 00:19:00,1990E-3,5C000000,-0724,0830,12215,029.3,045.5,0.475,733.5,01.19,0.508
2014-08-09 00:20:00,1829E-3,5C000000,-0724,0830,12031,029.3,045.5,0.475,733.5,01.19,0.508
2014-08-09 00:21:00,1864E-3,5C000000,-0724,0828,12146,029.3,045.5,0.475,733.5,01.19,0.508
2014-08-09 00:22:00,1818E-3,5C000000,-0724,0829,12090,029.3,045.5,0.475,733.5,01.19,0.508
2014-08-09 00:23:00,1906E-3,5C000000,-0724,0829,12278,029.4,045.5,0.475,733.5,01.19,0.508
2014-08-09 00:24:00,1834E-3,5C000000,-0724,0829,12130,029.4,045.5,0.475,733.5,01.19,0.508
2014-08-09 00:25:00,1756E-3,5C000000,-0724,0830,11906,029.4,045.5,0.475,733.5,01.19,0.508
2014-08-09 00:26:00,1909E-3,5C000000,-0724,0829,12315,029.4,045.5,0.475,733.5,01.19,0.508
2014-08-09 00:27:00,1824E-3,5C000000,-0724,0830,12174,029.4,045.5,0.475,733.5,01.19,0.508
2014-08-09 00:28:00,1791E-3,5C000000,-0724,0829,12204,029.4,045.5,0.475,733.5,01.19,0.508
2014-08-09 00:29:00,1750E-3,5C000000,-0724,0829,12168,029.4,045.5,0.475,733.5,01.19,0.508
2014-08-09 00:30:00,1812E-3,5C000000,-0724,0829,12329,029.4,045.5,0.475,733.5,01.19,0.508
2014-08-09 00:31:00,1924E-3,5C000000,-0724,0829,12233,029.4,045.5,0.475,733.6,01.19,0.508
2014-08-09 00:32:00,1831E-3,5C000000,-0724,0829,12354,029.4,045.5,0.475,733.6,01.19,0.508
2014-08-09 00:33:00,1750E-3,5C000000,-0724,0828,12408,029.4,045.5,0.475,733.6,01.19,0.508
2014-08-09 00:34:00,1883E-3,5C000000,-0724,0829,12273,029.4,045.5,0.475,733.6,01.19,0.508
2014-08-09 00:35:00,1797E-3,5C000000,-0724,0828,12209,029.5,045.5,0.475,733.6,01.19,0.508
2014-08-09 00:36:00,1777E-3,5C000000,-0724,0828,12200,029.5,045.6,0.475,733.6,01.19,0.508
2014-08-09 00:37:00,1860E-3,5C000000,-0724,0829,12283,029.5,045.5,0.475,733.6,01.19,0.508
2014-08-09 00:38:00,1806E-3,5C000000,-0724,0829,11944,029.5,045.5,0.475,733.6,01.19,0.508
2014-08-09 00:39:00,1851E-3,5C000000,-0724,0829,12177,029.5,045.5,0.475,733.6,01.19,0.508
2014-08-09 00:40:00,1802E-3,5C000000,-0724,0830,11984,029.5,045.5,0.474,733.6,01.19,0.508
2014-08-09 00:41:00,1844E-3,5C000000,-0724,0831,12305,029.5,045.5,0.475,733.6,01.19,0.508
2014-08-09 00:42:00,1930E-3,5C000000,-0724,0828,12145,029.5,045.5,0.475,733.6,01.19,0.508
2014-08-09 00:43:00,1902E-3,5C000000,-0724,0829,12379,029.5,045.5,0.474,733.6,01.19,0.508
2014-08-09 00:44:00,1929E-3,5C000000,-0724,0830,12283,029.5,045.5,0.475,733.6,01.19,0.508
2014-08-09 00:45:00,1756E-3,5C000000,-0724,0829,12283,029.6,045.5,0.475,733.6,01.19,0.508
2014-08-09 00:46:00,1916E-3,5C000000,-0724,0829,12308,029.6,045.5,0.474,733.5,01.19,0.508
2014-08-09 00:47:00,1786E-3,5C000000,-0724,0829,12267,029.6,045.6,0.475,733.5,01.19,0.508
2014-08-09 00:48:00,1736E-3,5C000000,-0724,0829,12281,029.6,045.5,0.475,733.5,01.19,0.508
2014-08-09 00:49:00,1813E-3,5C000000,-0724,0829,12303,029.6,045.5,0.474,733.5,01.19,0.508
2014-08-09 00:50:00,1838E-3,5C000000,-0724,0829,12345,029.6,045.5,0.475,733.5,01.19,0.508
2014-08-09 00:51:00,1773E-3,5C000000,-0724,0829,12213,029.6,045.5,0.475,733.5,01.19,0.508
2014-08-09 00:52:00,1853E-3,5C000000,-0724,0828,12193,029.6,045.5,0.474,733.5,01.19,0.508
2014-08-09 00:53:00,1833E-3,5C000000,-0724,0828,11896,029.6,045.5,0.475,733.5,01.19,0.508
2014-08-09 00:54:00,1777E-3,5C000000,-0724,0830,12126,029.6,045.5,0.475,733.5,01.19,0.508
2014-08-09 00:55:00,1858E-3,5C000000,-0724,0828,12112,029.6,045.5,0.474,733.4,01.19,0.508
2014-08-09 00:56:00,1955E-3,5C000000,-0724,0829,12291,029.7,045.5,0.475,733.4,01.19,0.508
2014-08-09 00:57:00,1864E-3,5C000000,-0724,0829,12219,029.7,045.5,0.475,733.4,01.19,0.508
2014-08-09 00:58:00,1757E-3,5C000000,-0724,0829,12162,029.7,045.5,0.474,733.5,01.19,0.508
2014-08-09 00:59:00,1800E-3,5C000000,-0724,0829,11976,029.7,045.5,0.475,733.4,01.19,0.508
2014-08-09 01:00:00,2005E-3,5C000000,-0724,0829,12084,029.7,045.5,0.474,733.4,01.19,0.508
2014-08-09 01:01:00,1988E-3,5C000000,-0724,0828,12077,029.7,045.6,0.474,733.4,01.19,0.508
2014-08-09 01:02:00,1926E-3,5C000000,-0724,0829,12265,029.7,045.5,0.475,733.5,01.19,0.508
2014-08-09 01:03:00,1856E-3,5C000000,-0724,0830,12155,029.7,045.5,0.474,733.4,01.19,0.508
2014-08-09 01:04:00,1980E-3,5C000000,-0724,0829,12392,029.7,045.5,0.474,733.4,01.19,0.508
2014-08-09 01:05:00,1823E-3,5C000000,-0724,0828,12074,029.7,045.5,0.475,733.4,01.19,0.508
2014-08-09 01:06:00,1879E-3,5C000000,-0724,0829,12251,029.8,045.5,0.474,733.4,01.19,0.508
2014-08-09 01:07:00,1944E-3,5C000000,-0724,0829,12354,029.7,045.5,0.475,733.4,01.19,0.508
2014-08-09 01:08:00,1890E-3,5C000000,-0724,0828,12154,029.8,045.5,0.474,733.4,01.19,0.508
2014-08-09 01:09:00,1799E-3,5C000000,-0724,0828,12141,029.8,045.5,0.474,733.5,01.19,0.508
2014-08-09 01:10:00,1882E-3,5C000000,-0724,0828,12179,029.8,045.5,0.475,733.4,01.19,0.508
2014-08-09 01:11:00,2043E-3,5C000000,-0724,0829,12317,029.8,045.5,0.474,733.4,01.19,0.508
2014-08-09 01:12:00,1896E-3,5C000000,-0724,0829,12118,029.8,045.5,0.474,733.4,01.19,0.508
2014-08-09 01:13:00,1893E-3,5C000000,-0724,0829,12240,029.8,045.6,0.474,733.4,01.19,0.508
2014-08-09 01:14:00,1896E-3,5C000000,-0724,0828,12220,029.8,045.5,0.474,733.4,01.19,0.508
2014-08-09 01:15:00,1800E-3,5C000000,-0724,0828,12114,029.8,045.5,0.475,733.4,01.19,0.508
2014-08-09 01:16:00,1954E-3,5C000000,-0724,0828,12099,029.9,045.5,0.474,733.5,01.19,0.508
2014-08-09 01:17:00,1936E-3,5C000000,-0724,0829,12171,029.8,045.6,0.474,733.4,01.19,0.508
2014-08-09 01:18:00,1763E-3,5C000000,-0724,0830,12004,029.8,045.5,0.474,733.5,01.19,0.508
2014-08-09 01:19:00,1905E-3,5C000000,-0724,0829,12227,029.8,045.5,0.474,733.4,01.19,0.508
2014-08-09 01:20:00,1860E-3,5C000000,-0724,0829,12127,029.9,045.5,0.475,733.4,01.19,0.508
2014-08-09 01:21:00,1746E-3,5C000000,-0724,0829,12290,029.9,045.5,0.474,733.4,01.19,0.508
2014-08-09 01:22:00,1896E-3,5C000000,-0724,0829,12274,029.9,045.5,0.474,733.5,01.19,0.508
2014-08-09 01:23:00,1911E-3,5C000000,-0724,0829,12281,029.9,045.5,0.474,733.4,01.19,0.508
2014-08-09 01:24:00,1893E-3,5C000000,-0724,0829,12392,029.9,045.5,0.474,733.4,01.19,0.508
2014-08-09 01:25:00,1787E-3,5C000000,-0724,0829,12195,029.9,045.6,0.474,733.4,01.19,0.508
2014-08-09 01:26:00,1840E-3,5C000000,-0724,0829,12225,029.9,045.6,0.474,733.4,01.19,0.508
2014-08-09 01:27:00,2010E-3,5C000000,-0724,0829,12341,029.9,045.5,0.475,733.4,01.19,0.508
2014-08-09 01:28:00,1905E-3,5C000000,-0724,0829,12351,029.9,045.5,0.474,733.3,01.19,0.508
2014-08-09 01:29:00,1848E-3,5C000000,-0724,0829,12233,029.9,045.5,0.474,733.3,01.19,0.508
2014-08-09 01:30:00,2014E-3,5C000000,-0724,0829,12107,029.9,045.6,0.474,733.3,01.19,0.508
2014-08-09 01:31:00,1833E-3,5C000000,-0724,0828,12338,029.9,045.6,0.474,733.3,01.19,0.508
2014-08-09 01:32:00,1895E-3,5C000000,-0724,0829,12074,030.0,045.6,0.474,733.2,01.19,0.508
2014-08-09 01:33:00,1714E-3,5C000000,-0724,0829,12081,030.0,045.6,0.474,733.3,01.19,0.508
2014-08-09 01:34:00,1798E-3,5C000000,-0724,0829,12375,030.0,045.6,0.474,733.2,01.19,0.508
2014-08-09 01:35:00,1784E-3,5C000000,-0724,0829,12388,030.0,045.5,0.474,733.2,01.19,0.508
2014-08-09 01:36:00,1862E-3,5C000000,-0724,0829,12208,030.0,045.5,0.474,733.2,01.19,0.508
2014-08-09 01:37:00,1890E-3,5C000000,-0724,0829,12217,030.0,045.5,0.474,733.3,01.19,0.508
2014-08-09 01:38:00,1783E-3,5C000000,-0724,0828,12021,030.0,045.6,0.474,733.2,01.19,0.508
2014-08-09 01:39:00,1919E-3,5C000000,-0724,0829,12131,030.0,045.6,0.474,733.2,01.19,0.508
2014-08-09 01:40:00,1835E-3,5C000000,-0724,0830,12110,030.0,045.6,0.474,733.2,01.19,0.508
2014-08-09 01:41:00,1819E-3,5C000000,-0724,0828,11927,030.0,045.5,0.474,733.2,01.19,0.508
2014-08-09 01:42:00,1762E-3,5C000000,-0724,0829,12306,030.1,045.6,0.474,733.2,01.19,0.508
2014-08-09 01:43:00,1919E-3,5C000000,-0724,0829,12180,030.0,045.6,0.474,733.2,01.19,0.508
2014-08-09 01:44:00,1910E-3,5C000000,-0724,0829,12243,030.1,045.6,0.474,733.2,01.19,0.508
2014-08-09 01:45:00,1774E-3,5C000000,-0724,0830,12317,030.1,045.6,0.474,733.1,01.19,0.508
2014-08-09 01:46:00,1806E-3,5C000000,-0724,0829,11957,030.1,045.6,0.474,733.1,01.19,0.508
2014-08-09 01:47:00,1802E-3,5C000000,-0724,0829,11987,030.1,045.5,0.474,733.1,01.19,0.508
2014-08-09 01:48:00,1892E-3,5C000000,-0724,0828,12011,030.1,045.5,0.474,733.1,01.19,0.508
2014-08-09 01:49:00,1654E-3,5C000000,-0724,0829,12193,030.1,045.5,0.474,733.1,01.19,0.508
2014-08-09 01:50:00,1745E-3,5C000000,-0724,0829,12238,030.1,045.6,0.473,733.1,01.19,0.508
2014-08-09 01:51:00,1906E-3,5C000000,-0724,0829,12096,030.1,045.6,0.474,733.1,01.19,0.508
2014-08-09 01:52:00,1954E-3,5C000000,-0724,0828,12100,030.2,045.5,0.473,733.1,01.19,0.508
2014-08-09 01:53:00,1807E-3,5C000000,-0724,0828,12064,030.2,045.6,0.474,733.1,01.19,0.508
2014-08-09 01:54:00,1843E-3,5C000000,-0724,0828,12149,030.2,045.6,0.474,733.1,01.19,0.508
2014-08-09 01:55:00,1929E-3,5C000000,-0724,0830,12312,030.2,045.5,0.474,733.1,01.19,0.508
2014-08-09 01:56:00,1948E-3,5C000000,-0724,0829,12295,030.2,045.6,0.474,733.0,01.19,0.508
2014-08-09 01:57:00,1852E-3,5C000000,-0724,0829,12326,030.2,045.5,0.473,733.1,01.19,0.508
2014-08-09 01:58:00,1743E-3,5C000000,-0724,0830,12202,030.2,045.6,0.474,733.0,01.19,0.508
2014-08-09 01:59:00,1889E-3,5C000000,-0724,0829,12378,030.2,045.6,0.473,733.0,01.19,0.508
2014-08-09 02:00:00,1862E-3,5C000000,-0724,0830,12391,030.2,045.6,0.474,733.0,01.19,0.508
2014-08-09 02:01:00,1823E-3,5C000000,-0724,0829,12308,030.2,045.6,0.473,733.0,01.19,0.508
2014-08-09 02:02:00,1847E-3,5C000000,-0724,0829,12263,030.2,045.6,0.474,733.0,01.19,0.508
2014-08-09 02:03:00,1827E-3,5C000000,-0724,0828,12269,030.2,045.6,0.473,733.0,01.19,0.508
2014-08-09 02:04:00,1827E-3,5C000000,-0724,0829,12300,030.2,045.6,0.474,733.0,01.19,0.508
2014-08-09 02:05:00,1656E-3,5C000000,-0724,0830,12266,030.3,045.5,0.473,733.0,01.19,0.508
2014-08-09 02:06:00,1839E-3,5C000000,-0724,0830,12351,030.2,045.6,0.474,733.0,01.19,0.508
2014-08-09 02:07:00,1938E-3,5C000000,-0724,0829,12079,030.3,045.6,0.473,733.0,01.19,0.508
2014-08-09 02:08:00,1837E-3,5C000000,-0724,0829,12185,030.3,045.6,0.474,733.0,01.19,0.508
2014-08-09 02:09:00,2024E-3,5C000000,-0724,0829,12221,030.3,045.5,0.473,733.0,01.19,0.508
2014-08-09 02:10:00,1821E-3,5C000000,-0724,0829,12095,030.3,045.6,0.474,733.0,01.19,0.508
2014-08-09 02:11:00,1709E-3,5C000000,-0724,0830,12201,030.3,045.6,0.473,732.9,01.19,0.508
2014-08-09 02:12:00,1966E-3,5C000000,-0724,0829,12102,030.3,045.6,0.474,732.9,01.19,0.508
2014-08-09 02:13:00,1844E-3,5C000000,-0724,0829,12336,030.3,045.6,0.474,732.9,01.19,0.508
2014-08-09 02:14:00,1821E-3,5C000000,-0724,0829,12260,030.3,045.6,0.473,732.9,01.19,0.508
2014-08-09 02:15:00,1943E-3,5C000000,-0724,0829,12153,030.3,045.6,0.473,732.9,01.19,0.508
2014-08-09 02:16:00,1791E-3,5C000000,-0724,0830,12118,030.3,045.6,0.473,732.9,01.19,0.508
2014-08-09 02:17:00,1826E-3,5C000000,-0724,0829,12224,030.4,045.6,0.474,732.9,01.19,0.508
2014-08-09 02:18:00,1824E-3,5C000000,-0724,0829,12268,030.3,045.6,0.473,732.9,01.19,0.508
2014-08-09 02:19:00,1889E-3,5C000000,-0724,0832,12299,030.4,045.6,0.474,732.9,01.19,0.508
2014-08-09 02:20:00,1904E-3,5C000000,-0724,0829,12295,030.4,045.6,0.473,732.9,01.19,0.508
2014-08-09 02:21:00,1793E-3,5C000000,-0724,0830,12246,030.4,045.6,0.474,732.9,01.19,0.508
2014-08-09 02:22:00,1899E-3,5C000000,-0724,0829,12180,030.4,045.6,0.473,732.9,01.19,0.508
2014-08-09 02:23:00,1821E-3,5C000000,-0724,0829,12158,030.4,045.6,0.473,732.9,01.19,0.508
2014-08-09 02:24:00,1883E-3,5C000000,-0724,0830,12211,030.4,045.6,0.473,732.9,01.19,0.508
2014-08-09 02:25:00,1805E-3,5C000000,-0724,0829,12252,030.4,045.6,0.473,732.8,01.19,0.508
2014-08-09 02:26:00,1853E-3,5C000000,-0724,0830,12234,030.4,045.6,0.473,732.9,01.19,0.508
2014-08-09 02:27:00,1965E-3,5C000000,-0724,0829,12135,030.4,045.6,0.473,732.8,01.19,0.508
2014-08-09 02:28:00,1804E-3,5C000000,-0724,0828,12230,030.5,045.6,0.473,732.8,01.19,0.508
2014-08-09 02:29:00,1803E-3,5C000000,-0724,0829,12341,030.4,045.6,0.473,732.8,01.19,0.508
2014-08-09 02:30:00,1862E-3,5C000000,-0724,0829,12313,030.5,045.6,0.473,732.8,01.19,0.508
2014-08-09 02:31:00,1825E-3,5C000000,-0724,0830,12172,030.5,045.6,0.473,732.8,01.19,0.508
2014-08-09 02:32:00,1948E-3,5C000000,-0724,0829,12327,030.5,045.6,0.473,732.8,01.19,0.508
2014-08-09 02:33:00,1759E-3,5C000000,-0724,0829,12382,030.5,045.6,0.473,732.7,01.19,0.508
2014-08-09 02:34:00,1910E-3,5C000000,-0724,0830,12150,030.5,045.6,0.473,732.7,01.19,0.508
2014-08-09 02:35:00,1842E-3,5C000000,-0724,0828,12234,030.5,045.6,0.473,732.7,01.19,0.508
2014-08-09 02:36:00,1878E-3,5C000000,-0724,0829,11970,030.5,045.6,0.473,732.7,01.19,0.508
2014-08-09 02:37:00,1927E-3,5C000000,-0724,0828,12273,030.5,045.6,0.473,732.7,01.19,0.508
2014-08-09 02:38:00,1836E-3,5C000000,-0724,0828,12182,030.5,045.6,0.473,732.6,01.19,0.508
2014-08-09 02:39:00,1827E-3,5C000000,-0724,0830,12206,030.5,045.6,0.473,732.6,01.19,0.508
2014-08-09 02:40:00,1848E-3,5C000000,-0724,0829,12402,030.5,045.6,0.473,732.5,01.19,0.508
2014-08-09 02:41:00,1791E-3,5C000000,-0724,0828,12226,030.6,045.6,0.473,732.6,01.19,0.508
2014-08-09 02:42:00,1894E-3,5C000000,-0724,0829,12185,030.6,045.6,0.473,732.6,01.19,0.508
2014-08-09 02:43:00,1873E-3,5C000000,-0724,0829,12230,030.6,045.6,0.473,732.6,01.19,0.508
2014-08-09 02:44:00,1853E-3,5C000000,-0724,0828,11896,030.6,045.6,0.473,732.6,01.19,0.508
2014-08-09 02:45:00,1850E-3,5C000000,-0724,0829,12151,030.6,045.6,0.473,732.6,01.19,0.508
2014-08-09 02:46:00,1919E-3,5C000000,-0724,0830,12127,030.6,045.6,0.473,732.7,01.19,0.508
2014-08-09 02:47:00,1898E-3,5C000000,-0724,0829,12060,030.6,045.6,0.473,732.7,01.19,0.508
2014-08-09 02:48:00,1909E-3,5C000000,-0724,0828,12107,030.6,045.6,0.473,732.7,01.19,0.508
2014-08-09 02:49:00,1819E-3,5C000000,-0724,0830,12291,030.6,045.5,0.473,732.7,01.19,0.508
2014-08-09 02:50:00,1794E-3,5C000000,-0724,0828,12265,030.6,045.6,0.473,732.7,01.19,0.508
2014-08-09 02:51:00,1873E-3,5C000000,-0724,0829,12155,030.6,045.6,0.473,732.7,01.19,0.508
2014-08-09 02:52:00,1788E-3,5C000000,-0724,0828,12282,030.6,045.6,0.473,732.7,01.19,0.508
2014-08-09 02:53:00,1836E-3,5C000000,-0724,0828,12140,030.6,045.6,0.473,732.7,01.19,0.508
2014-08-09 02:54:00,1996E-3,5C000000,-0724,0829,12266,030.7,045.6,0.473,732.6,01.19,0.508
2014-08-09 02:55:00,1883E-3,5C000000,-0724,0829,12224,030.7,045.6,0.472,732.6,01.19,0.508
2014-08-09 02:56:00,1853E-3,5C000000,-0724,0829,12194,030.7,045.6,0.473,732.6,01.19,0.508
2014-08-09 02:57:00,1875E-3,5C000000,-0724,0829,12015,030.7,045.6,0.473,732.6,01.19,0.508
2014-08-09 02:58:00,1849E-3,5C000000,-0724,0830,12092,030.7,045.6,0.473,732.6,01.19,0.508
2014-08-09 02:59:00,1884E-3,5C000000,-0724,0829,12202,030.7,045.6,0.473,732.6,01.19,0.508
2014-08-09 03:00:00,1799E-3,5C000000,-0724,0829,12059,030.7,045.6,0.473,732.6,01.19,0.508
2014-08-09 03:01:00,1886E-3,5C000000,-0724,0829,12299,030.7,045.6,0.473,732.6,01.19,0.508
2014-08-09 03:02:00,1791E-3,5C000000,-0724,0829,12142,030.7,045.6,0.472,732.6,01.19,0.508
2014-08-09 03:03:00,1807E-3,5C000000,-0724,0829,12258,030.7,045.6,0.473,732.6,01.19,0.508
2014-08-09 03:04:00,2006E-3,5C000000,-0724,0829,12240,030.7,045.6,0.472,732.6,01.19,0.508
2014-08-09 03:05:00,1865E-3,5C000000,-0724,0830,12067,030.8,045.6,0.473,732.6,01.19,0.508
2014-08-09 03:06:00,1744E-3,5C000000,-0724,0829,12089,030.8,045.6,0.472,732.6,01.19,0.508
2014-08-09 03:07:00,1808E-3,5C000000,-0724,0831,12330,030.8,045.6,0.473,732.6,01.19,0.508
2014-08-09 03:08:00,1991E-3,5C000000,-0724,0829,12076,030.8,045.6,0.473,732.6,01.19,0.508
2014-08-09 03:09:00,1724E-3,5C000000,-0724,0829,12160,030.8,045.6,0.473,732.6,01.19,0.508
2014-08-09 03:10:00,1851E-3,5C000000,-0724,0829,12249,030.8,045.6,0.473,732.6,01.19,0.508
2014-08-09 03:11:00,1924E-3,5C000000,-0724,0829,12198,030.8,045.6,0.473,732.5,01.19,0.508
2014-08-09 03:12:00,1807E-3,5C000000,-0724,0829,12173,030.8,045.6,0.473,732.6,01.19,0.508
2014-08-09 03:13:00,1815E-3,5C000000,-0724,0829,12386,030.8,045.6,0.472,732.6,01.19,0.508
2014-08-09 03:14:00,1869E-3,5C000000,-0724,0828,12166,030.8,045.6,0.473,732.5,01.19,0.508
2014-08-09 03:15:00,1781E-3,5C000000,-0724,0829,12199,030.8,045.6,0.472,732.5,01.19,0.508
2014-08-09 03:16:00,1925E-3,5C000000,-0724,0830,12241,030.9,045.6,0.473,732.5,01.19,0.508
2014-08-09 03:17:00,1756E-3,5C000000,-0724,0830,12140,030.9,045.6,0.472,732.5,01.19,0.508
2014-08-09 03:18:00,1827E-3,5C000000,-0724,0829,12068,030.9,045.6,0.473,732.5,01.19,0.508
2014-08-09 03:19:00,1794E-3,5C000000,-0724,0830,11768,030.9,045.6,0.472,732.5,01.19,0.508
2014-08-09 03:20:00,2016E-3,5C000000,-0724,0830,11871,030.9,045.6,0.473,732.5,01.19,0.508
2014-08-09 03:21:00,1728E-3,5C000000,-0724,0829,12253,030.9,045.6,0.472,732.6,01.19,0.508
2014-08-09 03:22:00,1757E-3,5C000000,-0724,0829,12004,030.9,045.6,0.472,732.5,01.19,0.508
2014-08-09 03:23:00,1869E-3,5C000000,-0724,0829,12125,030.9,045.6,0.473,732.6,01.19,0.508
2014-08-09 03:24:00,1821E-3,5C000000,-0724,0829,12188,030.9,045.6,0.472,732.6,01.19,0.508
2014-08-09 03:25:00,1809E-3,5C000000,-0724,0830,12341,031.0,045.6,0.473,732.6,01.19,0.508
2014-08-09 03:26:00,1906E-3,5C000000,-0724,0829,12078,031.0,045.6,0.472,732.6,01.19,0.508
2014-08-09 03:27:00,1704E-3,5C000000,-0724,0829,12101,031.0,045.6,0.472,732.6,01.19,0.508
2014-08-09 03:28:00,1815E-3,5C000000,-0724,0830,12192,031.0,045.6,0.473,732.5,01.19,0.508
2014-08-09 03:29:00,1822E-3,5C000000,-0724,0829,12263,031.0,045.6,0.472,732.6,01.19,0.508
2014-08-09 03:30:00,1931E-3,5C000000,-0724,0829,12237,031.0,045.6,0.473,732.5,01.19,0.508
2014-08-09 03:31:00,1697E-3,5C000000,-0724,0829,12254,031.0,045.6,0.472,732.5,01.19,0.508
2014-08-09 03:32:00,1924E-3,5C000000,-0724,0830,12100,031.0,045.6,0.472,732.5,01.19,0.508
2014-08-09 03:33:00,1861E-3,5C000000,-0724,0829,12343,031.1,045.6,0.472,732.5,01.19,0.508
2014-08-09 03:34:00,1859E-3,5C000000,-0724,0828,12303,031.1,045.6,0.472,732.5,01.19,0.508
2014-08-09 03:35:00,1873E-3,5C000000,-0724,0829,12234,031.1,045.6,0.472,732.5,01.19,0.508
2014-08-09 03:36:00,1818E-3,5C000000,-0724,0828,12322,031.1,045.6,0.472,732.5,01.19,0.508
2014-08-09 03:37:00,1946E-3,5C000000,-0724,0830,11844,031.1,045.6,0.472,732.5,01.19,0.508
2014-08-09 03:38:00,1773E-3,5C000000,-0724,0829,12395,031.1,045.6,0.472,732.5,01.19,0.508
2014-08-09 03:39:00,1695E-3,5C000000,-0724,0830,12205,031.1,045.6,0.472,732.5,01.19,0.508
2014-08-09 03:40:00,1811E-3,5C000000,-0724,0829,12127,031.1,045.6,0.472,732.5,01.19,0.508
2014-08-09 03:41:00,1847E-3,5C000000,-0724,0828,12328,031.1,045.6,0.472,732.5,01.19,0.508
2014-08-09 03:42:00,1871E-3,5C000000,-0724,0830,12236,031.1,045.6,0.472,732.5,01.19,0.508
2014-08-09 03:43:00,1913E-3,5C000000,-0724,0829,12158,031.1,045.6,0.472,732.5,01.19,0.508
2014-08-09 03:44:00,1730E-3,5C000000,-0724,0830,12226,031.1,045.6,0.472,732.5,01.19,0.508
2014-08-09 03:45:00,1898E-3,5C000000,-0724,0829,12177,031.1,045.6,0.472,732.6,01.19,0.508
2014-08-09 03:46:00,1863E-3,5C000000,-0724,0830,12069,031.1,045.6,0.472,732.5,01.19,0.508
2014-08-09 03:47:00,1831E-3,5C000000,-0724,0829,12258,031.1,045.6,0.473,732.5,01.19,0.508
2014-08-09 03:48:00,1813E-3,5C000000,-0724,0830,12230,031.0,045.6,0.472,732.6,01.19,0.508
2014-08-09 03:49:00,1850E-3,5C000000,-0724,0829,12343,031.0,045.6,0.472,732.6,01.19,0.508
2014-08-09 03:50:00,1968E-3,5C000000,-0724,0829,12262,031.0,045.6,0.473,732.5,01.19,0.508
2014-08-09 03:51:00,1881E-3,5C000000,-0724,0829,12287,031.0,045.6,0.472,732.5,01.19,0.508
2014-08-09 03:52:00,1699E-3,5C000000,-0724,0830,12052,031.0,045.6,0.473,732.5,01.19,0.508
2014-08-09 03:53:00,1825E-3,5C000000,-0724,0830,12303,030.9,045.6,0.473,732.5,01.19,0.508
2014-08-09 03:54:00,1870E-3,5C000000,-0724,0829,12075,030.9,045.6,0.472,732.5,01.19,0.508
2014-08-09 03:55:00,1931E-3,5C000000,-0724,0829,12207,030.9,045.6,0.473,732.5,01.19,0.508
2014-08-09 03:56:00,1954E-3,5C000000,-0724,0828,12230,030.9,045.6,0.472,732.5,01.19,0.508
2014-08-09 03:57:00,1797E-3,5C000000,-0724,0829,12382,030.9,045.6,0.473,732.5,01.19,0.508
2014-08-09 03:58:00,1826E-3,5C000000,-0724,0829,12178,030.9,045.6,0.473,732.4,01.19,0.508
2014-08-09 03:59:00,1679E-3,5C000000,-0724,0828,12326,030.9,045.6,0.473,732.4,01.19,0.508
2014-08-09 04:00:00,1890E-3,5C000000,-0724,0829,12359,030.9,045.6,0.473,732.4,01.19,0.508
2014-08-09 04:01:00,1821E-3,5C000000,-0724,0829,12247,030.9,045.6,0.473,732.4,01.19,0.508
2014-08-09 04:02:00,1839E-3,5C000000,-0724,0830,12321,030.9,045.6,0.473,732.4,01.19,0.508
2014-08-09 04:03:00,1833E-3,5C000000,-0724,0829,12331,030.9,045.6,0.473,732.4,01.19,0.508
2014-08-09 04:04:00,1937E-3,5C000000,-0724,0829,12305,030.9,045.6,0.473,732.4,01.19,0.508
2014-08-09 04:05:00,2044E-3,5C000000,-0724,0829,12259,030.9,045.6,0.472,732.4,01.19,0.508
2014-08-09 04:06:00,1859E-3,5C000000,-0724,0828,12005,030.9,045.6,0.473,732.4,01.19,0.508
2014-08-09 04:07:00,1828E-3,5C000000,-0724,0829,12040,030.9,045.6,0.473,732.4,01.19,0.508
2014-08-09 04:08:00,1834E-3,5C000000,-0724,0829,11949,030.9,045.6,0.473,732.5,01.19,0.508
2014-08-09 04:09:00,1967E-3,5C000000,-0724,0829,12194,030.9,045.6,0.472,732.4,01.19,0.508
2014-08-09 04:10:00,1916E-3,5C000000,-0724,0829,12317,030.9,045.6,0.473,732.4,01.19,0.508
2014-08-09 04:11:00,1895E-3,5C000000,-0724,0828,12006,030.9,045.6,0.472,732.4,01.19,0.508
2014-08-09 04:12:00,1938E-3,5C000000,-0724,0828,12240,031.0,045.6,0.472,732.4,01.19,0.508
2014-08-09 04:13:00,1733E-3,5C000000,-0724,0829,12162,031.0,045.6,0.472,732.4,01.19,0.508
2014-08-09 04:14:00,1841E-3,5C000000,-0724,0829,12332,031.0,045.6,0.472,732.4,01.19,0.508
2014-08-09 04:15:00,1927E-3,5C000000,-0724,0829,12223,031.0,045.6,0.472,732.5,01.19,0.508
2014-08-09 04:16:00,1801E-3,5C000000,-0724,0830,12335,031.0,045.6,0.472,732.5,01.19,0.508
2014-08-09 04:17:00,1836E-3,5C000000,-0724,0829,12008,031.0,045.6,0.472,732.4,01.19,0.508
2014-08-09 04:18:00,1825E-3,5C000000,-0724,0829,12134,031.0,045.6,0.472,732.5,01.19,0.508
2014-08-09 04:19:00,1724E-3,5C000000,-0724,0829,12090,031.1,045.6,0.472,732.5,01.19,0.508
2014-08-09 04:20:00,1850E-3,5C000000,-0724,0830,12401,031.0,045.6,0.473,732.5,01.19,0.508